Wind_Speed
51 51 51 52 52 53 53 53 54 55 56 56 57 58 58 59 59 60 60 61 61 62 62 62 62 61 60 58 56 54 53 51 50 50 49 49 48 47 47 46 46 45 45 44 44 44 44 45 45 45 46 47 47 48 48 49 49 50 51 51 52 53 53 54 55 56 56 57 58 58 59 60 61 62 62 63 65 66 67 67 67 67 67 67 67 67
51 52 52 53 54 55 55 55 56 57 58 59 59 60 60 61 61 62 62 62 63 63 63 63 63 62 60 58 56 54 52 51 50 49 49 48 47 46 46 45 44 44 44 43 43 43 44 44 44 45 45 46 46 47 48 48 49 50 50 51 52 53 53 54 55 55 56 57 57 58 59 59 60 61 62 63 65 66 67 67 67 67 67 66 66 66
52 53 53 54 55 56 57 57 58 59 60 61 61 61 62 62 63 63 63 64 64 64 64 64 63 62 60 57 55 53 52 51 50 49 48 47 46 45 45 44 43 43 43 43 43 43 43 43 44 44 45 45 46 47 47 48 49 50 50 51 52 52 53 54 54 55 55 56 57 58 58 59 60 60 61 63 64 65 66 67 67 67 66 66 65 65
53 54 55 55 56 57 58 59 60 61 61 62 62 63 63 64 64 65 65 65 65 65 65 64 63 61 59 57 55 53 52 51 50 49 48 47 46 45 44 43 43 42 42 42 42 42 43 43 43 44 44 45 46 46 47 48 49 50 50 51 52 52 53 53 54 55 55 56 56 57 58 58 59 59 60 61 62 63 64 65 66 66 66 65 64 64
54 55 56 57 58 59 60 60 61 62 62 63 63 64 64 65 65 66 66 66 66 66 65 64 63 61 59 57 55 54 52 51 50 49 48 47 45 44 43 43 42 42 42 42 42 42 42 43 43 43 44 45 46 47 47 48 49 49 50 51 51 52 53 53 54 54 55 55 56 56 57 57 57 58 58 59 60 61 62 64 65 65 65 65 64 63
55 56 58 59 60 60 61 62 62 63 63 64 64 65 65 66 66 66 67 67 66 66 65 64 62 60 58 57 55 54 53 52 50 49 48 46 45 44 43 42 42 42 42 42 42 42 42 42 43 44 44 45 46 47 48 48 49 49 50 50 51 52 53 53 54 54 54 55 55 55 55 55 56 56 56 57 57 59 60 61 63 64 64 64 63 63
56 57 59 60 61 62 62 63 63 64 64 65 65 66 66 66 67 67 67 67 66 66 64 63 61 60 58 57 56 54 53 52 51 50 48 47 45 44 43 42 42 42 41 41 42 42 42 42 43 44 44 45 46 47 47 48 48 49 49 50 51 51 52 52 53 53 53 53 53 53 54 54 54 54 54 54 55 56 58 59 61 62 63 63 63 62
58 59 60 61 62 63 64 64 64 64 65 65 66 66 67 67 67 67 67 67 66 65 64 62 61 59 58 57 56 55 54 53 52 50 49 47 45 44 43 42 42 42 41 41 41 42 42 42 43 44 45 45 46 47 47 47 48 49 49 50 50 51 51 51 51 51 51 52 52 52 52 52 52 52 52 52 53 54 55 57 58 60 61 62 62 62
59 60 61 62 62 63 64 65 65 65 65 65 66 66 67 67 68 67 67 66 65 64 63 61 60 59 58 57 56 55 54 53 52 50 49 47 46 44 43 43 42 42 42 41 41 42 42 43 43 44 45 46 46 47 47 48 48 49 49 50 50 50 50 50 50 50 50 50 50 50 50 50 50 50 50 50 51 52 54 55 57 58 59 60 61 61
60 61 62 62 63 64 64 65 65 65 65 65 66 66 67 67 67 67 67 66 64 63 61 60 59 59 58 57 56 55 54 53 52 51 49 47 46 45 44 43 42 42 42 42 42 42 42 43 44 45 45 46 47 47 47 48 48 48 49 49 49 49 49 49 49 49 49 49 49 49 49 48 48 48 48 48 49 50 52 53 55 56 58 59 59 60
61 61 62 63 64 64 65 65 65 65 65 65 66 66 67 66 66 66 66 65 63 62 60 59 59 58 57 57 56 55 54 53 52 51 49 47 46 45 44 44 43 43 42 42 42 43 43 44 44 45 46 46 46 47 47 47 48 48 48 48 48 48 48 48 48 48 48 48 47 47 47 47 46 46 46 47 47 48 50 51 53 54 56 57 58 59
61 62 62 63 64 64 64 65 65 65 65 65 65 65 66 66 65 64 64 63 62 61 59 59 58 57 57 57 56 56 55 54 52 51 49 48 47 46 45 44 43 43 43 43 43 43 44 44 45 46 46 46 47 47 47 47 47 47 47 47 47 47 47 47 47 47 47 46 46 46 46 45 45 45 45 45 45 46 47 49 50 52 54 55 56 57
61 62 62 63 63 64 64 64 64 64 64 64 64 64 64 64 63 62 62 61 60 59 58 58 58 57 56 56 56 56 55 54 52 51 50 48 47 46 45 44 44 43 43 43 43 44 44 45 45 46 46 47 47 47 47 47 46 46 46 46 47 47 47 47 47 46 46 46 45 45 44 44 44 44 44 44 44 44 46 47 48 50 52 53 55 56
61 61 62 62 63 63 63 63 63 63 63 63 63 62 62 62 61 60 60 59 59 58 57 57 57 56 56 55 55 55 55 54 53 51 50 48 47 46 45 45 44 44 43 44 44 45 45 45 46 46 47 47 47 47 47 46 45 45 45 46 46 46 46 46 46 45 45 45 44 44 44 43 43 43 43 43 43 43 44 45 47 48 50 52 53 55
60 60 61 61 62 62 62 62 62 62 62 61 61 61 61 60 59 58 58 58 58 57 57 57 56 56 55 54 54 54 54 54 53 51 50 48 46 45 45 45 45 44 44 44 45 45 45 46 47 47 47 47 47 46 46 45 44 44 44 45 45 45 45 45 44 44 44 44 43 43 43 43 42 42 42 42 42 43 43 44 45 47 48 50 52 53
60 60 60 61 61 61 61 61 61 61 61 60 60 59 59 58 58 57 56 56 56 56 56 56 56 56 55 53 53 53 54 54 53 52 50 47 46 44 44 45 45 45 44 45 45 46 46 46 47 47 47 47 46 46 45 44 43 43 43 43 43 43 43 43 43 43 43 42 42 42 42 42 42 43 43 43 43 43 43 44 45 46 47 49 50 52
59 60 60 60 61 61 60 60 60 60 59 59 58 58 57 56 56 56 55 55 55 56 56 56 56 56 55 54 52 52 52 53 53 51 50 47 45 44 44 45 46 46 45 45 46 46 47 47 47 47 47 46 46 45 44 43 42 42 42 42 41 41 41 41 41 41 41 41 42 42 42 42 43 43 43 44 44 44 44 44 45 46 46 48 49 50
60 60 60 60 60 60 60 59 59 59 58 58 57 57 56 55 55 54 54 54 55 55 55 56 56 56 56 55 53 52 51 52 52 51 49 47 44 43 43 45 46 47 46 46 46 47 47 47 47 47 46 46 45 44 42 42 41 41 40 40 40 39 39 39 39 40 40 40 40 41 41 42 42 43 44 44 45 45 45 45 46 46 47 47 48 49
60 60 59 59 59 59 59 58 58 57 57 56 56 55 55 54 53 53 53 54 54 55 55 55 55 55 55 55 53 52 51 51 51 50 49 47 44 43 43 45 47 47 47 47 47 47 47 47 47 47 46 45 44 43 41 40 40 39 39 38 38 38 38 38 38 38 38 39 39 39 40 41 42 42 43 44 44 44 45 45 46 46 47 48 49 50
59 59 58 58 58 58 58 58 57 56 55 55 54 54 53 53 52 52 52 53 54 54 54 55 55 55 54 54 53 51 50 50 50 49 48 47 45 43 44 46 47 48 48 47 47 47 48 47 47 46 45 44 43 42 40 39 39 38 37 37 36 36 36 36 37 37 37 37 37 38 39 40 40 41 42 42 43 43 44 44 45 46 47 48 49 50
58 58 58 57 57 57 57 57 56 54 53 53 52 52 52 51 52 52 52 53 53 54 54 54 54 54 54 54 52 51 49 49 49 49 49 47 45 44 44 46 48 49 48 47 47 47 47 47 47 46 45 43 42 41 39 38 37 36 36 35 35 35 35 35 36 36 36 36 37 37 38 39 40 41 41 42 43 43 44 45 46 46 47 48 49 50
56 57 57 56 56 56 56 55 54 53 52 51 50 50 50 51 51 52 52 52 53 53 54 54 54 54 53 53 52 50 49 49 49 49 49 48 46 44 44 46 48 49 48 48 47 47 47 47 46 45 44 42 41 40 39 37 36 35 35 34 34 34 34 35 35 35 36 36 37 38 39 39 40 41 42 43 44 45 46 47 48 49 50 50 51 51
55 56 56 55 55 55 55 54 53 51 50 49 49 49 49 50 50 51 52 52 52 53 53 53 53 53 52 52 51 49 48 48 48 49 49 48 47 45 45 46 48 49 48 48 47 47 47 46 45 44 43 41 40 39 38 37 36 35 34 33 33 34 34 34 35 35 36 37 38 39 39 40 41 42 43 44 45 46 47 47 49 50 51 52 52 53
55 55 55 55 55 54 53 52 51 50 48 48 48 48 48 49 49 50 51 51 52 52 52 53 53 53 52 50 50 48 47 47 47 48 48 48 47 46 46 47 48 49 48 47 47 47 47 46 45 43 42 41 39 38 37 36 36 35 34 33 33 34 34 35 35 36 37 37 38 39 40 41 42 43 44 44 45 45 46 47 48 49 50 51 52 52
54 54 54 54 54 53 52 50 49 48 47 47 47 47 48 48 49 49 50 50 50 50 51 52 52 52 51 50 48 47 46 46 46 47 47 48 47 47 46 47 48 49 48 47 47 47 47 46 44 43 42 40 39 38 37 36 35 35 34 34 34 34 34 35 35 36 37 38 39 40 41 41 42 43 43 44 44 45 45 46 47 48 49 49 50 50
53 54 54 53 52 51 50 48 47 46 46 46 46 46 46 47 48 49 49 49 49 49 50 51 52 51 50 49 47 46 45 45 45 45 46 47 48 47 46 47 48 49 48 47 47 47 47 46 44 42 41 40 39 38 37 36 35 35 35 35 35 35 35 35 36 36 37 38 39 40 41 41 42 42 43 43 43 44 44 45 46 46 47 48 48 48
53 53 52 52 51 49 48 47 46 45 45 44 45 45 45 46 47 48 48 47 47 48 50 50 51 50 49 48 46 46 45 44 44 44 45 47 47 47 47 47 47 48 48 48 47 47 47 45 44 42 41 39 38 37 36 36 36 36 36 35 35 35 35 35 35 36 37 38 39 39 40 41 42 42 42 42 43 43 44 44 45 46 46 46 46 46
51 51 51 50 49 48 46 45 44 44 44 44 43 43 43 44 45 46 46 46 46 47 49 49 49 49 48 47 46 45 44 43 43 43 44 46 47 47 47 47 47 48 48 48 48 47 46 45 44 42 41 39 38 37 37 36 36 36 36 35 35 35 35 35 35 36 37 38 38 39 40 40 41 41 42 42 42 43 43 44 44 45 46 46 46 45
51 50 49 48 47 46 45 44 43 43 43 43 42 42 42 43 43 44 45 45 45 46 47 48 48 48 47 47 46 45 44 42 42 43 44 46 46 46 46 46 47 47 48 49 49 47 46 44 43 42 41 39 38 37 36 36 36 36 36 36 35 35 35 36 36 36 37 37 38 39 39 40 40 41 41 42 42 42 43 44 44 45 46 46 46 45
50 49 48 47 46 44 44 43 43 42 42 42 42 41 41 42 42 43 43 43 44 45 46 46 46 46 47 47 46 45 43 41 41 42 44 45 46 46 46 46 46 47 47 49 49 48 46 44 42 41 40 39 38 37 37 36 36 36 36 36 36 36 36 36 37 37 37 38 38 38 39 40 40 41 41 41 42 42 43 44 45 45 46 47 47 47
49 48 47 46 45 44 43 42 42 42 42 41 41 41 41 41 41 41 42 42 43 44 45 45 45 45 45 46 46 45 42 40 39 41 43 45 45 45 45 46 45 46 46 48 49 49 48 45 42 40 40 39 38 37 37 37 37 37 37 37 37 37 37 37 38 38 38 38 38 39 39 40 40 40 41 41 42 42 43 44 45 46 47 47 48 48
47 46 45 45 44 43 42 42 42 42 42 41 41 41 41 40 40 40 41 41 42 43 43 44 44 44 44 44 44 43 41 40 39 40 42 44 44 45 45 45 45 45 45 46 47 48 49 47 44 42 40 38 38 37 37 37 37 38 38 38 38 38 38 38 38 38 38 39 39 39 39 40 40 40 41 41 41 42 43 43 44 45 46 47 48 49
46 45 44 43 43 42 42 42 42 42 42 42 41 41 40 40 39 40 40 40 41 41 42 42 43 43 43 42 42 41 40 39 39 40 42 43 44 44 44 45 45 45 45 45 45 46 47 47 46 44 41 39 38 38 37 38 38 38 39 39 39 39 39 39 39 39 39 39 39 39 40 40 40 40 40 40 41 41 42 42 42 43 43 45 46 48
44 43 43 42 42 42 42 42 42 42 42 42 41 40 40 39 39 39 39 39 40 40 40 41 41 41 41 41 41 40 39 38 38 39 41 42 43 44 44 44 44 44 44 44 44 44 45 45 45 44 43 41 39 38 38 38 38 39 39 39 40 39 39 39 39 39 39 39 39 39 39 40 40 40 40 40 40 40 41 41 40 40 41 42 43 45
43 42 42 41 41 41 42 42 42 42 42 41 41 40 39 39 39 38 38 38 39 39 39 39 40 40 40 40 40 39 38 37 37 38 40 41 43 44 44 44 44 44 44 44 44 44 44 44 44 44 43 42 41 39 38 39 39 39 39 39 39 39 39 39 39 39 39 39 39 39 39 39 39 39 40 40 40 40 40 39 39 39 38 39 40 42
42 42 41 41 41 41 42 42 42 42 41 41 40 39 38 38 38 38 38 37 37 37 38 38 38 38 39 39 39 39 38 37 37 37 38 40 41 43 43 43 43 43 43 43 43 43 43 43 43 43 43 43 42 41 39 39 39 39 39 39 39 39 39 39 39 39 39 39 39 38 39 39 39 39 39 39 39 39 39 39 38 37 37 37 38 39
41 41 41 41 41 41 42 42 42 41 41 40 39 38 38 37 37 37 37 36 36 36 36 36 36 37 37 37 38 38 37 37 36 36 37 39 40 41 42 42 42 42 42 42 42 43 43 43 43 43 43 43 42 42 41 40 39 39 39 39 39 39 38 38 38 38 38 38 38 38 38 38 38 39 39 39 39 39 39 38 37 37 37 36 36 37
40 40 40 40 41 41 42 42 41 41 40 39 38 37 37 36 36 36 35 35 35 35 35 35 35 35 35 36 36 36 36 36 35 35 36 37 39 40 41 41 41 41 40 41 41 42 42 43 43 43 43 43 42 42 41 41 40 40 40 40 39 38 38 37 37 38 38 38 38 37 37 37 38 38 38 39 39 39 39 38 37 37 37 36 36 36
40 40 40 40 41 41 42 41 41 40 39 38 37 37 36 35 35 35 34 34 34 34 34 34 34 34 34 34 34 35 34 34 34 34 35 36 37 38 39 40 40 40 39 39 39 40 41 41 42 42 43 43 42 42 41 41 41 41 41 40 39 38 37 37 37 37 37 37 37 36 36 37 37 37 38 38 38 38 38 38 37 37 37 37 37 37
39 39 40 40 40 41 41 41 40 39 38 37 36 36 35 34 34 33 33 33 32 32 32 33 33 33 33 33 33 33 33 33 33 33 34 35 36 37 38 38 38 38 38 38 38 38 39 40 40 41 42 42 42 42 41 40 40 41 42 41 40 38 37 36 36 35 36 35 35 35 36 36 36 37 37 37 37 38 38 38 38 38 38 39 39 39
39 39 39 40 40 40 40 39 38 38 37 36 35 35 34 33 33 32 31 31 31 31 31 32 32 32 32 31 31 31 31 31 31 32 33 34 35 35 36 37 37 37 37 37 37 37 37 38 39 40 40 41 41 41 40 40 40 40 41 41 40 39 37 35 35 34 34 34 34 35 35 35 36 36 36 36 37 37 37 38 38 38 38 39 40 41
38 39 39 40 40 39 39 38 37 36 36 35 35 34 33 32 32 31 30 30 30 30 31 31 31 31 30 30 30 30 30 30 30 31 32 33 33 34 34 35 35 35 35 35 35 35 36 36 37 38 39 39 40 40 40 39 39 39 39 39 39 38 37 35 34 33 33 33 34 34 35 35 35 36 36 36 36 36 36 37 37 38 38 39 40 41
38 39 39 39 39 38 38 37 36 35 35 34 34 33 32 31 30 30 30 29 29 29 30 30 30 30 29 28 28 28 28 29 30 30 31 31 32 32 33 33 33 33 34 34 34 34 34 35 35 36 36 37 38 38 38 38 37 37 37 37 37 37 36 35 34 33 32 32 33 34 34 35 35 35 35 35 35 35 36 36 36 37 38 39 40 41
38 38 38 38 38 37 37 36 35 34 34 33 33 32 31 30 29 29 29 28 28 28 28 29 29 28 28 27 27 27 27 28 29 29 30 30 31 31 31 31 31 31 32 32 32 33 33 33 33 33 34 35 35 36 36 36 35 35 35 35 35 35 35 34 34 33 32 32 32 33 34 35 35 35 35 35 35 35 35 35 35 36 37 38 39 40
38 38 38 38 37 36 36 35 34 34 33 33 32 31 29 29 28 28 28 28 27 27 27 27 27 27 27 26 26 26 27 27 27 28 28 28 29 29 29 29 29 29 29 30 30 31 31 31 32 32 33 33 33 33 34 34 34 34 33 33 33 33 33 33 33 33 33 32 32 33 34 34 35 35 34 34 34 34 34 35 35 35 36 37 38 39
38 38 37 37 36 35 35 34 34 34 33 32 31 29 28 27 27 27 27 27 26 26 26 26 26 26 25 25 26 26 26 26 26 26 26 26 26 26 26 27 27 27 27 28 28 29 29 30 31 32 32 32 32 32 32 32 33 33 32 32 32 32 31 32 32 32 33 33 33 33 34 34 35 35 35 34 34 33 33 34 34 35 36 37 37 38
37 37 36 36 35 35 34 34 34 33 32 31 29 28 27 26 26 26 25 25 25 25 25 24 24 24 24 25 25 25 25 25 24 24 24 24 24 24 24 25 25 26 26 26 27 27 28 28 30 31 32 32 32 31 31 31 32 32 32 32 32 32 31 31 32 32 32 33 33 33 34 34 35 35 35 34 34 33 33 33 34 35 36 36 37 38
36 36 36 35 34 34 34 33 33 32 31 29 28 26 25 25 25 24 24 24 24 24 23 23 23 23 23 24 24 24 24 23 22 22 22 22 22 22 23 23 24 24 25 25 26 26 26 27 28 30 31 32 32 32 31 31 31 31 32 32 32 32 32 32 32 32 32 32 33 33 34 35 35 36 35 35 34 33 33 33 33 34 35 36 37 37
35 35 35 34 34 33 33 33 32 31 30 28 26 24 24 24 23 23 23 23 22 22 22 22 22 22 22 22 22 22 21 21 21 20 20 21 21 21 22 23 23 24 24 25 25 26 26 26 27 28 30 31 32 32 32 32 32 32 32 33 33 33 33 33 33 32 32 33 33 33 34 34 35 35 36 36 35 34 33 33 33 34 35 35 36 37
34 34 34 33 33 33 33 32 31 30 28 26 25 23 23 22 22 22 22 21 21 21 21 21 21 21 21 20 20 20 19 19 19 19 19 20 20 21 22 22 23 24 24 25 25 25 25 25 26 27 29 31 32 33 34 33 33 32 32 33 34 34 34 34 33 33 33 33 33 33 33 34 34 35 35 36 36 35 34 34 33 34 34 35 35 36
33 33 33 33 33 32 32 31 30 28 26 25 23 22 21 21 20 20 20 20 20 20 20 20 20 20 19 18 18 17 17 17 17 18 18 19 20 21 22 22 23 24 25 25 25 25 26 25 25 25 27 29 32 33 34 35 35 34 33 33 34 34 35 35 34 34 33 33 33 33 33 33 34 34 35 36 36 36 35 35 34 34 34 35 35 36
Wind_Direction
307 307 306 306 306 306 306 306 306 306 306 306 306 307 307 307 307 308 308 308 309 309 309 309 309 308 308 307 306 304 303 302 301 300 299 298 297 295 293 292 290 289 287 286 285 285 284 283 282 281 281 280 280 280 280 280 280 280 281 281 281 282 282 283 283 283 283 283 284 284 284 284 285 285 285 285 285 285 284 284 284 284 283 283 282 282
306 306 306 306 306 306 306 306 306 306 306 307 307 307 307 308 308 308 309 309 309 309 309 309 308 308 307 306 305 304 303 302 301 300 299 298 296 294 292 291 289 288 286 285 284 284 283 282 281 281 280 280 280 281 281 281 282 282 282 283 283 283 284 284 284 284 284 284 284 284 285 285 285 285 285 285 285 285 284 284 284 283 283 282 282 281
306 305 305 305 305 305 306 306 306 306 306 307 307 307 308 308 309 309 309 309 309 309 309 309 309 308 307 306 305 304 303 302 301 300 299 298 296 294 292 290 288 287 286 285 284 284 283 282 282 282 282 282 282 283 283 284 284 284 284 285 285 285 285 285 284 284 284 285 285 285 285 285 285 285 285 285 284 284 284 284 283 283 282 281 281 280
305 305 305 304 304 305 305 305 305 306 306 307 307 307 308 308 309 309 309 309 309 309 309 309 309 308 307 306 305 304 303 302 302 301 300 298 297 295 292 291 289 288 287 286 286 285 285 284 284 284 284 284 285 285 285 286 286 286 286 286 286 286 286 286 286 285 285 285 285 285 285 285 285 284 284 284 283 283 283 283 282 282 281 281 280 279
304 304 304 304 304 304 305 305 305 306 306 307 307 307 308 308 308 309 309 309 309 309 309 309 309 308 307 306 305 304 304 303 302 301 300 299 297 295 293 291 290 289 288 288 287 287 286 286 286 286 286 286 287 287 287 287 288 288 288 288 288 288 288 288 288 288 287 287 287 286 286 285 285 284 283 283 282 282 282 282 281 281 281 280 280 279
304 304 304 304 304 304 305 305 305 306 306 306 307 307 307 308 308 309 309 309 309 309 309 309 308 308 307 306 305 304 304 303 303 302 301 299 298 296 294 293 292 291 290 290 289 289 288 288 288 288 288 288 288 289 289 289 290 290 291 291 291 291 291 291 291 290 290 289 288 288 287 286 285 284 283 282 282 281 281 280 280 280 280 280 279 279
304 304 304 304 304 304 304 305 305 305 306 306 306 307 307 308 308 309 309 309 309 309 309 308 308 307 306 306 305 305 305 304 304 303 302 300 298 297 296 295 294 293 293 292 291 290 290 289 289 289 290 290 290 291 291 292 293 294 294 294 294 294 294 294 293 293 292 291 290 289 288 287 286 285 284 282 281 280 280 279 279 279 279 279 279 278
304 303 303 303 304 304 304 304 305 305 305 306 306 307 307 308 308 309 309 309 309 309 309 308 308 307 306 306 306 305 305 305 304 303 302 301 299 298 297 297 296 295 294 293 292 292 291 291 291 291 291 292 293 294 295 296 297 297 297 297 297 297 296 296 295 294 293 293 292 291 289 288 287 286 284 283 281 280 279 279 279 278 278 278 278 278
303 303 303 303 303 303 303 304 304 305 305 306 306 307 307 308 308 308 309 309 309 309 309 308 307 307 306 306 306 305 305 304 304 303 302 301 300 300 299 298 297 296 295 294 293 293 292 293 293 294 295 296 297 298 299 300 300 301 300 300 299 299 298 297 297 296 295 294 293 292 291 290 288 287 285 284 282 281 280 279 279 278 278 278 278 277
302 302 302 302 302 302 303 303 304 305 305 306 306 307 308 308 308 309 309 309 309 309 308 308 307 306 306 305 305 305 305 304 304 303 303 302 301 301 300 299 298 298 297 296 295 295 295 296 297 298 299 300 301 302 303 303 303 303 302 302 301 300 299 299 298 297 296 295 294 293 292 291 290 288 287 285 283 282 281 280 279 279 279 278 278 278
301 301 301 301 302 302 302 303 304 304 305 306 306 307 308 309 309 309 309 309 308 308 307 306 306 305 305 305 305 305 304 304 304 303 303 303 302 302 302 301 300 299 299 298 298 298 299 300 300 301 302 303 304 304 305 305 305 304 304 303 302 301 300 299 299 298 297 296 295 294 293 292 291 289 288 286 284 283 282 281 280 280 280 279 279 278
301 301 301 301 301 302 302 303 304 304 305 306 306 307 308 309 309 309 309 308 308 307 306 305 305 304 305 305 305 305 305 304 304 304 304 304 303 303 303 302 301 301 300 300 300 301 302 303 303 304 304 305 305 306 306 306 306 305 304 303 302 301 300 300 299 298 297 296 295 295 294 293 291 290 288 287 285 284 283 282 281 281 280 280 279 279
300 300 300 300 301 301 302 303 303 304 305 306 307 307 308 308 308 308 307 307 306 306 305 304 303 303 304 304 305 305 305 305 305 305 305 305 305 305 304 303 303 302 302 302 302 302 304 304 305 305 306 306 307 307 307 307 306 305 304 303 302 301 301 300 299 298 297 296 295 295 294 293 292 290 289 287 286 284 283 282 282 281 281 280 279 279
300 300 300 300 301 301 302 303 303 304 304 305 306 307 307 307 307 307 306 305 305 304 303 303 302 303 303 304 304 305 305 305 305 304 304 304 305 305 305 304 303 303 303 303 304 304 305 306 306 306 307 307 308 308 308 308 307 306 305 304 303 302 301 300 299 298 297 296 295 294 294 293 292 291 290 288 287 286 284 283 282 282 281 280 280 279
299 299 300 300 300 301 302 302 303 304 304 305 306 307 307 307 306 305 305 304 303 303 302 302 301 302 303 304 304 305 305 305 304 304 304 304 304 305 305 304 303 303 304 304 305 306 307 307 307 307 308 308 309 309 309 309 308 307 306 304 303 302 301 300 299 298 297 296 295 295 294 294 293 293 292 291 289 288 286 285 284 283 282 281 280 279
299 299 300 300 300 301 301 302 303 303 305 306 306 306 306 306 305 304 303 303 302 302 302 302 302 302 302 303 304 305 305 305 304 304 303 303 303 305 306 305 304 304 304 305 306 307 308 308 308 308 309 309 310 310 310 309 308 307 306 304 303 302 300 299 298 297 296 296 296 296 296 296 296 296 295 294 293 291 290 288 287 285 284 283 282 280
299 299 300 300 300 301 301 302 303 304 305 306 306 306 305 305 304 303 303 302 302 302 302 302 303 303 303 303 304 304 304 304 304 303 302 302 303 305 306 306 305 305 305 306 307 308 308 308 308 309 309 310 310 311 310 309 308 307 305 304 303 301 300 299 298 298 297 298 298 299 300 300 300 300 299 298 297 296 294 292 291 289 287 285 284 282
299 299 300 300 300 300 301 302 303 304 305 306 306 305 305 304 303 303 302 302 302 302 302 303 303 303 303 303 303 303 304 304 303 303 302 302 303 305 306 306 306 306 306 307 307 308 309 309 309 309 310 311 311 311 310 310 308 307 306 305 303 302 301 300 299 299 300 300 301 302 303 303 302 302 301 301 300 298 297 296 294 292 291 289 287 285
299 299 299 299 300 300 301 302 304 305 305 305 305 305 304 303 303 302 302 302 302 302 302 302 302 302 302 302 302 303 303 304 303 303 303 303 304 306 307 307 306 306 306 307 308 309 309 309 309 310 311 312 312 311 311 310 309 308 307 306 305 303 302 301 301 301 302 302 303 304 304 303 303 302 301 301 300 299 298 297 296 295 293 292 290 288
298 298 298 299 299 300 301 302 304 305 305 305 304 303 303 302 302 302 301 301 301 301 301 301 301 301 301 301 301 302 303 304 304 304 304 305 305 307 308 307 307 306 307 308 309 309 309 309 310 311 312 312 312 312 311 311 310 309 308 307 306 304 303 302 302 302 303 304 304 304 303 303 302 301 300 300 299 298 298 297 297 296 295 293 292 290
297 297 298 298 299 299 301 302 303 304 304 303 303 302 302 302 301 301 301 300 300 300 300 300 300 300 300 300 301 302 304 305 305 305 305 305 306 307 308 307 307 306 307 308 308 309 309 310 310 312 312 312 312 312 311 311 311 310 309 308 307 305 304 303 303 304 304 304 304 304 303 302 301 301 300 300 299 300 300 300 300 299 298 296 294 292
296 296 297 297 298 299 300 302 302 303 303 302 302 302 301 301 301 300 300 299 299 299 299 300 300 300 300 301 301 303 304 305 306 306 306 306 306 306 307 307 306 306 307 308 308 309 309 310 311 312 312 312 312 312 312 311 311 311 310 309 307 306 305 305 305 306 306 306 306 305 304 303 303 302 302 302 302 303 303 304 303 303 302 300 298 295
295 295 296 297 298 299 300 301 302 302 302 302 301 301 301 300 300 300 299 299 299 299 299 299 299 299 300 301 301 302 304 305 306 306 306 306 306 306 306 306 306 306 307 308 308 309 309 310 311 312 312 312 312 312 312 312 312 312 311 309 308 307 307 308 309 310 310 309 308 307 306 305 305 305 305 305 305 305 306 306 305 304 302 301 299 297
294 295 296 297 298 299 300 301 301 302 301 301 300 299 299 299 299 298 298 298 298 299 299 299 298 298 299 300 301 302 303 304 305 306 306 306 306 306 306 306 306 306 307 308 308 309 310 310 311 312 312 313 313 313 313 313 312 312 311 310 310 310 311 312 313 313 312 311 310 309 308 307 307 306 306 306 306 306 306 305 304 303 302 300 299 297
293 295 296 297 298 299 300 300 301 301 300 299 299 298 298 298 298 297 297 297 298 299 298 298 297 298 298 299 300 301 303 304 305 306 306 306 305 305 305 306 307 307 307 308 308 309 310 311 311 312 313 313 314 314 314 313 313 312 312 313 314 315 316 316 316 315 313 312 310 309 308 307 307 306 306 306 305 305 305 304 303 302 301 300 298 297
294 295 296 297 298 299 299 300 299 299 298 297 297 297 297 297 297 296 296 297 298 298 298 297 297 297 298 299 300 301 302 304 305 306 306 305 304 304 305 306 307 307 307 308 309 310 310 311 312 313 313 314 314 314 314 314 314 314 315 316 318 319 319 318 317 315 313 312 310 309 308 307 306 306 305 305 305 305 304 304 303 302 301 300 298 297
294 295 296 297 297 298 298 298 298 297 296 295 295 295 296 296 296 295 296 297 297 297 297 297 297 298 298 299 300 301 302 304 305 306 306 305 304 304 305 306 307 307 308 309 309 310 310 311 312 313 314 315 315 315 315 316 316 317 318 319 320 320 320 319 317 315 313 311 310 309 308 307 306 306 305 305 305 305 305 304 303 302 301 300 299 299
294 294 295 296 297 297 297 296 295 294 293 293 294 294 295 296 296 296 296 297 297 297 297 297 298 299 299 299 299 300 302 304 305 306 305 304 304 305 306 307 308 308 309 309 309 309 310 311 312 313 314 315 316 316 317 318 318 319 320 320 320 320 320 319 317 315 314 312 311 310 309 308 307 306 306 306 305 305 305 305 304 303 302 301 301 301
293 294 294 295 296 296 295 294 293 292 292 292 293 294 295 296 296 296 296 297 297 297 297 298 298 299 299 299 299 300 301 304 306 306 305 305 304 305 306 307 308 309 309 309 309 309 309 311 313 314 315 316 317 318 318 319 319 319 320 320 321 321 321 319 318 317 315 314 313 312 310 309 308 307 307 306 306 306 306 306 305 304 303 303 302 303
293 294 294 295 295 295 294 293 292 292 292 293 294 295 296 296 296 296 296 297 297 297 298 298 298 299 299 299 299 300 301 304 306 306 306 305 305 305 306 307 308 309 309 309 309 309 309 311 313 315 316 316 317 318 319 319 320 320 320 321 322 322 322 321 320 319 317 316 315 313 312 311 310 309 308 308 308 308 307 307 306 305 304 304 304 305
294 294 295 295 295 295 294 294 293 293 294 294 295 296 296 296 296 296 296 297 297 298 298 298 298 298 298 299 299 300 302 304 305 306 305 305 305 305 307 307 308 309 310 310 310 310 311 311 312 314 315 316 317 318 319 320 321 321 322 323 323 324 324 323 322 320 319 317 316 315 313 312 311 310 310 310 309 309 309 308 307 306 306 305 306 306
294 295 295 295 296 296 295 295 295 295 296 296 297 297 297 297 296 296 296 297 297 297 297 297 296 297 297 298 299 300 302 304 305 305 305 305 305 306 307 308 309 309 310 310 310 311 311 312 313 314 314 316 317 319 320 321 322 323 323 324 324 325 325 324 323 321 320 318 317 316 314 313 312 312 311 311 311 310 310 309 308 307 306 305 305 306
295 295 295 296 296 296 296 296 296 296 297 297 297 297 297 297 296 296 296 296 296 296 296 296 296 296 296 297 298 300 302 304 305 306 305 305 306 307 307 308 309 309 310 310 310 311 311 312 313 314 314 316 318 320 321 322 323 323 324 324 325 325 325 325 323 322 320 319 317 316 315 314 313 313 313 312 312 311 311 310 309 307 306 305 304 305
294 295 295 296 296 296 296 296 296 297 297 297 298 297 297 297 296 296 296 296 295 295 295 295 296 296 296 297 298 299 301 304 306 306 306 307 307 307 308 308 309 310 310 310 310 310 311 312 313 315 316 316 318 321 322 323 323 323 324 325 325 326 326 325 324 322 320 319 318 317 316 315 315 315 314 314 313 312 311 310 309 308 306 305 304 304
294 295 295 296 296 296 296 296 296 297 297 298 298 297 297 297 296 296 296 295 295 295 295 295 296 296 297 298 299 300 302 305 306 307 307 308 307 308 308 309 309 310 310 311 311 311 312 312 314 316 317 318 319 320 322 323 323 324 324 324 325 326 326 325 324 322 320 319 319 318 317 317 317 316 316 316 315 314 312 311 310 309 308 306 305 304
295 295 295 295 295 295 295 295 296 296 297 297 297 297 297 296 296 296 295 295 295 295 295 296 296 297 297 299 300 302 304 306 307 308 308 307 307 307 308 309 310 310 311 311 312 312 313 314 315 316 318 319 320 321 322 322 323 323 323 324 325 326 326 325 324 322 321 320 320 319 319 319 318 318 317 317 316 315 314 313 313 312 310 309 307 306
294 295 295 295 295 295 295 295 295 296 297 297 297 296 296 296 296 296 295 295 295 295 296 296 296 297 298 299 301 303 305 306 308 308 308 307 307 307 307 309 310 311 312 312 313 314 315 316 317 318 319 320 321 321 322 322 322 323 323 324 325 326 326 325 324 322 321 321 321 321 320 320 319 319 318 318 317 316 316 316 315 315 313 312 310 308
294 294 294 294 294 294 294 295 296 296 297 297 297 296 296 296 296 296 295 295 295 295 296 296 296 297 298 299 301 303 305 307 308 308 307 306 306 307 308 309 310 311 312 313 314 316 317 318 319 319 319 320 320 321 322 323 323 323 323 323 325 326 326 325 324 323 322 322 321 321 321 320 320 319 319 319 318 318 318 318 318 317 316 314 313 311
293 293 293 293 294 294 295 295 296 296 297 297 297 297 297 296 296 295 295 295 295 296 296 296 296 297 298 299 301 303 305 307 307 307 306 306 306 307 308 310 311 312 313 314 316 317 318 319 320 320 320 320 320 321 322 324 324 323 323 324 324 325 326 325 324 322 321 321 321 321 320 320 320 320 320 321 321 321 321 321 320 320 319 317 315 314
292 292 292 293 293 294 294 295 296 296 296 297 297 297 297 296 296 295 295 295 296 296 296 296 296 297 298 300 302 304 305 306 307 307 307 307 308 309 309 310 311 313 314 315 317 318 319 319 320 320 320 320 321 322 324 325 325 324 324 324 324 325 325 325 323 322 321 320 320 321 321 321 321 321 322 322 323 323 323 323 322 322 321 320 319 318
292 292 292 292 293 293 294 295 296 296 296 296 297 297 297 297 296 296 296 296 296 296 296 296 296 297 299 301 303 305 306 307 307 307 308 309 309 310 310 311 312 313 315 317 318 319 320 320 320 320 320 321 322 323 325 325 325 325 324 323 324 324 324 323 322 321 320 321 321 321 322 322 322 323 323 324 324 325 325 324 324 324 323 322 321 321
291 291 291 292 293 293 294 295 295 296 296 297 297 298 298 298 298 297 297 297 296 296 295 296 297 298 300 302 304 306 307 307 308 309 309 310 310 310 311 312 313 315 317 318 319 320 321 321 321 321 322 322 323 324 325 326 326 325 324 323 322 322 322 322 321 321 321 322 322 323 323 323 324 324 325 326 326 326 326 326 326 325 324 323 323 323
291 291 291 292 293 294 295 295 296 296 297 297 298 299 299 299 299 298 298 297 296 296 296 297 298 300 302 304 306 307 307 308 309 310 311 311 311 311 312 313 315 317 318 320 321 321 322 322 323 323 323 323 324 325 325 326 325 325 323 322 322 321 322 322 322 322 323 323 324 324 325 325 325 325 326 327 328 328 328 327 326 326 325 324 324 324
291 291 292 293 294 295 295 296 297 297 298 299 300 300 300 300 299 298 297 296 295 295 296 298 299 301 303 306 307 308 308 309 311 311 311 311 312 312 314 315 317 319 320 321 322 323 323 324 324 324 324 325 325 326 326 326 325 325 323 322 322 322 324 324 324 324 325 325 326 326 326 326 326 326 327 328 329 329 329 328 327 327 326 325 325 325
291 292 293 294 295 296 296 297 298 298 299 300 301 301 301 299 298 297 296 295 295 296 297 299 301 303 305 307 308 309 310 311 312 312 312 312 313 314 316 318 319 321 322 323 324 325 325 326 326 325 325 326 326 327 327 327 326 325 325 324 324 324 325 326 327 328 328 328 328 328 328 327 327 328 329 330 331 331 331 330 329 328 327 327 327 327
292 293 293 294 295 296 297 298 298 299 300 301 301 301 300 298 297 295 294 294 295 296 298 300 302 304 307 308 309 310 311 312 313 313 314 314 315 317 319 321 323 324 325 326 327 327 327 328 327 327 326 327 328 329 329 329 328 328 327 326 327 327 328 329 330 331 331 330 330 330 329 329 329 330 331 332 333 333 333 332 331 330 329 329 328 328
292 293 294 294 295 296 297 298 299 300 301 302 301 300 298 296 295 293 293 294 295 297 299 301 304 306 308 309 310 311 312 314 315 315 316 317 319 321 323 325 327 328 328 329 329 329 329 329 329 329 328 329 330 330 331 331 331 331 330 330 331 331 332 333 334 333 333 332 332 332 331 331 331 332 333 333 334 335 335 335 334 333 332 331 330 330
292 292 294 295 296 296 298 299 300 301 301 301 300 298 296 294 293 292 293 294 296 298 300 303 305 307 308 310 311 312 314 315 317 318 320 322 324 327 329 330 331 331 332 332 332 332 331 332 332 331 331 331 331 332 333 334 334 334 335 335 335 335 336 336 336 336 335 334 334 334 334 334 334 334 334 335 336 337 338 338 338 336 335 333 332 331
291 292 294 295 296 297 298 299 300 301 301 300 298 296 293 292 291 292 293 295 297 299 301 303 305 307 308 310 311 313 315 317 320 322 325 327 330 332 334 334 335 336 336 336 335 335 334 335 335 335 334 334 334 334 335 336 337 338 339 339 339 339 339 339 339 338 337 337 336 336 336 336 336 336 336 337 338 339 340 341 341 339 337 336 334 333
291 293 294 295 297 298 299 300 301 301 300 298 295 293 290 289 290 291 293 296 298 300 302 303 305 306 308 309 311 313 316 319 323 327 330 333 335 337 338 339 339 339 340 340 339 339 338 338 339 340 338 337 336 337 338 339 340 341 342 342 342 341 341 341 341 340 340 339 339 338 338 338 338 338 338 339 340 341 342 343 343 342 340 338 336 335
292 293 295 296 297 298 300 300 300 299 298 295 292 290 288 288 289 291 294 296 297 299 301 303 304 306 307 309 312 315 318 322 327 331 335 338 340 341 342 342 343 343 342 343 343 343 342 342 343 344 344 341 339 339 339 340 341 342 343 344 344 344 343 343 342 342 342 341 341 341 340 340 341 341 341 341 341 342 343 344 345 344 343 341 339 337
Height
3052 3051 3050 3048 3047 3046 3045 3044 3043 3042 3040 3040 3039 3038 3036 3035 3033 3032 3031 3029 3027 3025 3024 3022 3020 3019 3017 3016 3014 3013 3012 3010 3009 3008 3006 3005 3003 3002 3000 2998 2997 2996 2994 2993 2992 2991 2989 2988 2987 2986 2984 2983 2982 2981 2980 2978 2977 2975 2974 2973 2971 2970 2968 2966 2965 2963 2961 2959 2958 2956 2954 2952 2950 2948 2946 2944 2943 2940 2938 2937 2935 2934 2933 2932 2931 2930
3050 3048 3047 3045 3043 3042 3041 3040 3039 3038 3036 3035 3034 3033 3031 3030 3028 3027 3026 3024 3022 3020 3019 3017 3015 3014 3012 3011 3010 3008 3007 3006 3004 3003 3002 3000 2999 2998 2996 2995 2993 2992 2990 2989 2988 2987 2985 2984 2983 2982 2981 2979 2978 2977 2975 2974 2973 2971 2969 2968 2966 2965 2963 2962 2960 2958 2956 2954 2953 2951 2949 2947 2945 2943 2941 2939 2937 2934 2933 2931 2929 2928 2927 2926 2925 2924
3047 3045 3043 3042 3041 3039 3037 3036 3035 3034 3032 3030 3029 3028 3027 3025 3023 3022 3021 3019 3017 3015 3014 3012 3010 3008 3007 3006 3005 3003 3002 3001 3000 2998 2997 2996 2994 2993 2992 2990 2989 2988 2986 2985 2984 2983 2981 2980 2979 2978 2977 2975 2974 2972 2971 2969 2968 2966 2965 2963 2962 2960 2958 2957 2955 2953 2952 2950 2948 2946 2944 2942 2940 2938 2936 2933 2931 2928 2927 2925 2923 2922 2921 2920 2919 2918
3044 3041 3040 3039 3037 3036 3034 3033 3031 3030 3028 3027 3025 3023 3022 3020 3019 3017 3016 3014 3012 3010 3009 3007 3005 3003 3002 3001 3000 2999 2998 2996 2995 2994 2993 2991 2990 2989 2988 2986 2985 2983 2982 2981 2980 2978 2977 2976 2975 2973 2972 2971 2969 2968 2966 2964 2963 2961 2960 2958 2957 2955 2953 2952 2950 2948 2946 2944 2943 2940 2938 2936 2934 2932 2930 2928 2925 2923 2921 2919 2917 2916 2914 2913 2913 2912
3041 3038 3037 3035 3033 3032 3031 3029 3027 3025 3024 3023 3021 3019 3018 3016 3014 3013 3011 3009 3008 3005 3003 3002 3000 2998 2997 2995 2994 2993 2993 2992 2990 2989 2988 2987 2986 2984 2983 2982 2981 2979 2978 2977 2975 2974 2973 2972 2970 2969 2968 2966 2964 2963 2961 2959 2958 2956 2955 2953 2951 2949 2948 2946 2944 2942 2940 2938 2937 2934 2933 2930 2928 2926 2924 2922 2920 2918 2915 2913 2911 2910 2908 2907 2907 2906
3038 3036 3033 3032 3030 3028 3027 3025 3023 3022 3020 3018 3017 3015 3013 3012 3010 3008 3006 3005 3003 3001 2999 2997 2996 2994 2992 2991 2989 2988 2988 2987 2986 2984 2983 2982 2981 2980 2979 2978 2976 2975 2974 2973 2971 2970 2968 2967 2966 2964 2963 2961 2960 2958 2956 2954 2953 2951 2949 2948 2946 2943 2942 2940 2938 2936 2934 2932 2930 2928 2926 2924 2922 2920 2918 2916 2914 2912 2910 2908 2906 2904 2902 2901 2901 2900
3034 3033 3030 3028 3026 3024 3023 3021 3019 3018 3016 3014 3013 3011 3010 3008 3006 3004 3002 3000 2998 2997 2995 2993 2991 2989 2988 2986 2985 2983 2983 2982 2981 2980 2979 2978 2977 2976 2974 2973 2972 2971 2969 2968 2967 2965 2964 2963 2961 2960 2958 2957 2955 2953 2951 2949 2948 2946 2944 2942 2940 2938 2936 2934 2932 2930 2928 2926 2924 2922 2920 2918 2916 2914 2913 2911 2909 2907 2905 2903 2901 2899 2897 2896 2895 2894
3030 3029 3028 3025 3022 3020 3019 3018 3016 3014 3013 3010 3008 3007 3005 3004 3002 3000 2998 2996 2994 2992 2990 2988 2986 2985 2983 2982 2980 2978 2978 2977 2976 2975 2974 2973 2972 2971 2970 2969 2968 2966 2965 2964 2962 2961 2960 2958 2957 2955 2953 2952 2950 2948 2946 2944 2943 2940 2938 2936 2934 2932 2930 2928 2926 2924 2922 2920 2918 2916 2914 2912 2910 2908 2907 2905 2903 2902 2900 2898 2896 2894 2893 2891 2890 2889
3027 3025 3023 3022 3020 3017 3015 3014 3013 3011 3009 3007 3004 3003 3001 2999 2998 2996 2994 2992 2990 2988 2985 2983 2981 2980 2979 2978 2976 2974 2973 2972 2971 2970 2969 2968 2967 2966 2965 2964 2963 2962 2961 2959 2958 2957 2955 2954 2952 2950 2948 2947 2945 2943 2941 2939 2937 2935 2933 2931 2929 2927 2925 2923 2921 2918 2916 2914 2912 2910 2908 2907 2905 2903 2902 2900 2898 2897 2895 2893 2892 2890 2888 2886 2885 2884
3024 3022 3020 3018 3016 3014 3012 3010 3009 3008 3006 3003 3001 2999 2998 2995 2993 2991 2989 2988 2986 2984 2982 2979 2977 2976 2974 2973 2972 2970 2969 2967 2966 2966 2965 2963 2962 2961 2960 2959 2958 2957 2956 2955 2953 2952 2950 2949 2947 2945 2943 2942 2940 2938 2936 2934 2932 2930 2928 2926 2923 2921 2919 2917 2915 2913 2911 2909 2907 2905 2903 2902 2900 2898 2897 2895 2894 2892 2890 2889 2887 2886 2884 2882 2881 2880
3021 3019 3017 3014 3013 3011 3009 3007 3005 3004 3003 3000 2998 2996 2994 2992 2989 2986 2984 2983 2982 2981 2978 2976 2974 2972 2970 2968 2967 2966 2965 2963 2962 2961 2960 2959 2958 2957 2956 2955 2953 2952 2951 2950 2948 2947 2946 2944 2942 2941 2939 2937 2935 2933 2932 2930 2928 2925 2923 2921 2919 2917 2914 2912 2910 2908 2906 2904 2902 2900 2898 2897 2895 2894 2893 2891 2890 2888 2886 2885 2883 2881 2880 2878 2877 2876
3017 3015 3013 3011 3009 3008 3006 3004 3002 3000 2999 2997 2995 2993 2991 2988 2986 2983 2981 2978 2977 2976 2975 2973 2971 2969 2967 2965 2963 2961 2960 2959 2958 2956 2956 2955 2953 2953 2951 2950 2949 2948 2947 2945 2944 2943 2941 2939 2938 2936 2934 2933 2931 2929 2928 2925 2923 2921 2919 2917 2914 2912 2910 2908 2906 2903 2901 2899 2898 2896 2894 2892 2891 2889 2888 2887 2885 2884 2883 2881 2879 2878 2876 2874 2873 2871
3013 3012 3009 3007 3006 3004 3003 3001 2999 2997 2996 2994 2992 2990 2988 2986 2984 2981 2978 2976 2974 2973 2971 2968 2967 2966 2964 2962 2960 2957 2956 2954 2953 2953 2952 2951 2949 2948 2947 2946 2945 2944 2943 2941 2940 2938 2937 2935 2933 2932 2930 2929 2927 2925 2923 2922 2919 2917 2915 2912 2910 2908 2905 2903 2901 2899 2897 2895 2893 2891 2890 2888 2887 2885 2884 2883 2881 2880 2878 2877 2875 2874 2872 2870 2868 2867
3010 3008 3006 3004 3002 3001 2999 2998 2996 2994 2993 2991 2989 2987 2985 2983 2980 2978 2975 2973 2971 2969 2968 2965 2963 2962 2961 2959 2957 2954 2952 2951 2949 2949 2948 2948 2946 2945 2943 2942 2941 2940 2939 2937 2935 2934 2933 2931 2929 2927 2926 2925 2923 2921 2919 2918 2915 2913 2911 2908 2906 2903 2901 2899 2897 2894 2892 2890 2889 2887 2885 2884 2882 2881 2879 2878 2877 2875 2874 2873 2871 2870 2868 2866 2865 2863
3007 3005 3002 3000 2999 2998 2996 2995 2993 2991 2989 2988 2987 2984 2982 2979 2977 2975 2973 2969 2967 2966 2964 2962 2960 2958 2958 2957 2954 2951 2949 2947 2946 2945 2945 2944 2943 2942 2940 2938 2937 2936 2935 2933 2931 2930 2929 2927 2925 2923 2922 2921 2919 2918 2916 2914 2912 2909 2907 2904 2902 2899 2897 2895 2893 2890 2888 2887 2885 2883 2881 2879 2878 2876 2875 2873 2873 2871 2870 2868 2867 2865 2864 2863 2861 2859
3003 3001 2998 2997 2995 2994 2993 2992 2990 2988 2986 2985 2983 2981 2979 2976 2974 2972 2969 2967 2964 2962 2960 2958 2956 2954 2954 2954 2953 2950 2946 2943 2942 2941 2941 2940 2940 2940 2938 2934 2933 2932 2932 2930 2928 2926 2925 2923 2922 2920 2918 2917 2916 2914 2912 2910 2908 2906 2903 2901 2898 2896 2893 2891 2889 2887 2885 2883 2881 2878 2877 2875 2873 2872 2870 2869 2868 2867 2866 2864 2863 2862 2860 2858 2857 2855
2998 2997 2995 2993 2992 2990 2989 2988 2986 2984 2983 2981 2979 2977 2975 2973 2970 2968 2966 2963 2960 2958 2956 2954 2952 2950 2948 2949 2949 2948 2945 2941 2938 2937 2937 2937 2937 2936 2935 2931 2928 2927 2927 2926 2925 2923 2921 2919 2918 2916 2915 2913 2912 2911 2909 2907 2905 2903 2900 2898 2895 2893 2890 2888 2885 2883 2881 2878 2876 2874 2872 2870 2868 2867 2865 2864 2863 2862 2861 2860 2859 2858 2856 2855 2853 2851
2994 2993 2991 2989 2988 2987 2986 2984 2983 2981 2979 2978 2975 2973 2971 2969 2967 2964 2962 2959 2957 2955 2952 2951 2949 2947 2945 2943 2944 2944 2943 2939 2935 2933 2933 2933 2933 2933 2931 2928 2925 2923 2923 2922 2921 2919 2917 2916 2914 2913 2912 2910 2909 2907 2905 2903 2901 2899 2896 2894 2891 2889 2886 2884 2882 2879 2877 2874 2872 2870 2868 2866 2864 2863 2861 2860 2858 2857 2856 2855 2854 2853 2852 2850 2848 2847
2990 2988 2987 2985 2983 2982 2981 2981 2980 2978 2976 2973 2972 2970 2967 2965 2963 2961 2958 2956 2953 2952 2949 2948 2946 2944 2943 2941 2940 2940 2940 2936 2932 2930 2929 2929 2929 2929 2928 2925 2922 2920 2919 2918 2917 2915 2913 2912 2911 2909 2908 2907 2905 2903 2902 2900 2898 2895 2893 2890 2888 2885 2883 2880 2878 2876 2873 2871 2868 2866 2864 2862 2861 2859 2858 2856 2855 2853 2852 2850 2849 2848 2847 2845 2844 2843
2986 2984 2983 2982 2980 2978 2977 2977 2976 2975 2973 2970 2968 2966 2964 2962 2960 2958 2955 2953 2951 2948 2947 2945 2943 2941 2940 2938 2937 2937 2936 2933 2929 2927 2926 2925 2925 2925 2925 2922 2918 2916 2915 2915 2913 2912 2910 2908 2907 2906 2905 2903 2902 2900 2898 2896 2894 2892 2889 2887 2884 2882 2879 2877 2875 2872 2870 2867 2865 2863 2861 2859 2858 2856 2855 2853 2852 2850 2848 2847 2845 2843 2842 2841 2839 2838
2982 2981 2980 2979 2978 2975 2974 2973 2973 2972 2970 2968 2965 2963 2960 2958 2956 2954 2952 2950 2948 2945 2943 2942 2940 2938 2937 2935 2933 2933 2933 2930 2927 2924 2923 2922 2922 2922 2922 2918 2915 2913 2912 2911 2910 2908 2906 2904 2903 2902 2901 2900 2898 2897 2895 2893 2891 2888 2886 2883 2881 2879 2876 2873 2871 2868 2866 2863 2861 2859 2858 2856 2855 2853 2852 2850 2848 2847 2845 2843 2841 2840 2838 2837 2835 2833
2979 2978 2977 2976 2974 2973 2971 2970 2970 2969 2967 2965 2962 2959 2957 2955 2953 2950 2948 2946 2944 2942 2940 2939 2937 2935 2934 2932 2930 2930 2930 2928 2924 2922 2920 2918 2918 2919 2919 2916 2912 2909 2908 2908 2906 2905 2903 2901 2900 2899 2898 2897 2895 2893 2891 2889 2887 2885 2883 2880 2878 2875 2873 2870 2867 2864 2862 2860 2858 2856 2854 2853 2851 2850 2848 2846 2844 2842 2840 2838 2837 2835 2833 2831 2830 2828
2976 2974 2973 2973 2971 2970 2968 2968 2966 2965 2963 2961 2959 2956 2954 2952 2950 2947 2945 2943 2941 2939 2937 2935 2933 2932 2931 2930 2928 2927 2927 2925 2923 2919 2917 2915 2914 2915 2915 2913 2909 2906 2905 2904 2903 2901 2899 2898 2897 2896 2895 2893 2892 2890 2888 2886 2883 2881 2879 2877 2874 2871 2868 2866 2863 2860 2858 2856 2854 2853 2851 2849 2848 2846 2844 2842 2840 2838 2836 2834 2832 2830 2828 2827 2825 2823
2973 2971 2970 2969 2968 2967 2965 2964 2963 2961 2959 2958 2956 2953 2951 2949 2948 2945 2943 2941 2938 2936 2934 2932 2930 2929 2928 2928 2926 2924 2924 2923 2920 2918 2915 2913 2911 2911 2911 2909 2906 2903 2902 2901 2899 2897 2896 2895 2894 2893 2891 2889 2888 2886 2884 2882 2880 2878 2876 2873 2870 2867 2864 2862 2859 2856 2854 2852 2851 2849 2848 2846 2844 2843 2841 2839 2837 2835 2833 2831 2829 2827 2825 2823 2821 2818
2969 2968 2967 2966 2964 2963 2962 2961 2959 2958 2956 2954 2952 2950 2949 2947 2945 2943 2940 2938 2936 2934 2931 2929 2927 2925 2925 2924 2923 2922 2921 2920 2918 2915 2913 2910 2908 2908 2908 2906 2903 2899 2898 2897 2896 2894 2892 2891 2891 2890 2888 2886 2884 2882 2880 2878 2876 2874 2872 2869 2866 2863 2860 2858 2855 2853 2851 2849 2848 2846 2844 2843 2841 2839 2838 2836 2834 2832 2830 2828 2826 2824 2822 2819 2817 2814
2966 2964 2963 2962 2961 2960 2959 2958 2956 2955 2953 2952 2951 2949 2947 2944 2942 2939 2937 2936 2934 2931 2928 2926 2924 2923 2922 2921 2920 2919 2918 2918 2916 2914 2911 2908 2905 2904 2904 2903 2900 2896 2894 2893 2892 2891 2889 2888 2887 2886 2885 2883 2881 2879 2877 2874 2872 2870 2867 2864 2862 2859 2857 2855 2853 2850 2848 2847 2845 2843 2841 2840 2838 2836 2835 2833 2831 2829 2828 2826 2823 2821 2818 2815 2813 2810
2962 2961 2960 2959 2958 2957 2956 2955 2953 2952 2951 2950 2948 2946 2943 2941 2938 2935 2934 2933 2932 2929 2925 2923 2921 2919 2919 2918 2917 2916 2916 2915 2913 2912 2909 2905 2903 2901 2901 2899 2896 2893 2891 2889 2888 2887 2885 2884 2883 2883 2881 2879 2877 2875 2873 2871 2868 2866 2863 2861 2859 2857 2854 2852 2850 2848 2846 2844 2842 2840 2839 2837 2835 2833 2832 2830 2828 2827 2825 2823 2820 2818 2815 2812 2808 2806
2959 2958 2957 2956 2955 2954 2953 2952 2951 2950 2948 2947 2945 2943 2941 2938 2935 2933 2931 2930 2929 2926 2923 2921 2919 2917 2915 2915 2914 2913 2913 2913 2911 2909 2906 2903 2900 2898 2898 2896 2893 2890 2888 2885 2884 2884 2883 2881 2880 2879 2877 2876 2873 2871 2869 2867 2864 2862 2860 2858 2856 2854 2852 2849 2847 2845 2843 2841 2839 2838 2836 2834 2832 2831 2829 2827 2826 2823 2822 2819 2817 2814 2811 2808 2805 2802
2956 2955 2954 2953 2952 2951 2950 2949 2948 2946 2945 2944 2942 2940 2938 2936 2933 2930 2928 2928 2926 2923 2920 2919 2917 2915 2913 2912 2911 2911 2911 2911 2909 2907 2903 2900 2898 2896 2895 2892 2890 2888 2885 2882 2880 2879 2880 2879 2878 2875 2873 2872 2870 2868 2866 2863 2861 2859 2857 2855 2853 2851 2849 2846 2844 2842 2840 2838 2837 2835 2833 2831 2829 2828 2826 2824 2822 2820 2818 2816 2813 2810 2807 2804 2801 2798
2953 2951 2950 2949 2949 2948 2947 2945 2944 2943 2941 2940 2938 2937 2935 2933 2931 2928 2927 2925 2923 2920 2918 2916 2915 2913 2911 2909 2908 2908 2908 2909 2908 2904 2901 2898 2895 2893 2892 2890 2888 2885 2883 2879 2876 2874 2874 2876 2875 2873 2870 2868 2867 2865 2863 2860 2858 2856 2853 2851 2849 2848 2845 2843 2841 2839 2838 2836 2834 2832 2830 2828 2827 2825 2823 2821 2819 2817 2814 2812 2809 2806 2803 2799 2796 2793
2949 2948 2947 2946 2945 2944 2943 2941 2940 2939 2938 2936 2935 2933 2932 2930 2928 2926 2924 2923 2920 2918 2916 2914 2913 2911 2910 2908 2906 2905 2905 2907 2906 2903 2898 2895 2892 2890 2889 2887 2885 2883 2881 2878 2873 2870 2868 2869 2871 2871 2868 2866 2864 2862 2860 2857 2855 2852 2850 2848 2846 2844 2842 2840 2838 2836 2834 2833 2831 2829 2827 2825 2823 2822 2820 2818 2815 2813 2810 2808 2805 2802 2798 2794 2791 2788
2945 2944 2943 2942 2941 2940 2938 2937 2936 2935 2934 2933 2931 2930 2928 2927 2925 2923 2922 2920 2918 2916 2914 2912 2911 2909 2908 2906 2904 2903 2903 2903 2903 2900 2896 2893 2890 2888 2887 2884 2882 2880 2879 2876 2873 2869 2865 2863 2864 2865 2865 2863 2861 2859 2857 2854 2852 2849 2847 2845 2843 2841 2839 2837 2835 2833 2831 2830 2828 2826 2824 2822 2820 2818 2816 2814 2812 2809 2807 2804 2802 2798 2794 2790 2787 2783
2942 2940 2939 2938 2937 2936 2935 2934 2933 2931 2930 2929 2928 2927 2925 2924 2922 2921 2919 2918 2916 2914 2912 2910 2908 2907 2905 2904 2903 2901 2901 2900 2899 2897 2893 2890 2887 2885 2883 2881 2879 2877 2876 2874 2872 2869 2865 2862 2860 2860 2860 2859 2858 2855 2853 2851 2849 2847 2844 2842 2840 2838 2836 2834 2832 2830 2828 2827 2825 2823 2821 2819 2817 2815 2813 2811 2808 2806 2803 2801 2799 2796 2792 2788 2784 2780
2938 2937 2936 2935 2934 2933 2932 2931 2929 2928 2927 2926 2925 2923 2922 2921 2919 2918 2916 2915 2913 2912 2910 2908 2906 2904 2903 2901 2900 2899 2899 2898 2897 2894 2891 2887 2884 2882 2880 2878 2877 2875 2873 2871 2869 2867 2864 2861 2858 2856 2854 2854 2853 2853 2850 2848 2846 2844 2842 2839 2837 2835 2833 2832 2829 2827 2825 2824 2822 2820 2818 2816 2813 2811 2809 2807 2805 2803 2801 2799 2796 2793 2790 2786 2782 2778
2935 2934 2933 2932 2931 2930 2928 2928 2926 2925 2924 2923 2922 2920 2919 2918 2916 2915 2913 2912 2910 2909 2907 2905 2904 2902 2900 2899 2898 2897 2896 2896 2894 2892 2888 2885 2882 2879 2877 2876 2874 2873 2870 2868 2866 2864 2861 2858 2857 2854 2851 2849 2849 2849 2848 2846 2843 2841 2839 2837 2835 2833 2831 2829 2827 2824 2823 2821 2819 2817 2814 2812 2810 2808 2806 2804 2802 2800 2798 2796 2794 2791 2788 2785 2781 2777
2932 2931 2930 2929 2928 2927 2925 2924 2923 2922 2921 2920 2919 2918 2916 2915 2913 2912 2911 2909 2908 2906 2905 2903 2901 2900 2898 2897 2895 2894 2893 2893 2892 2889 2886 2883 2880 2877 2875 2873 2872 2871 2868 2866 2863 2861 2858 2855 2853 2852 2849 2847 2845 2844 2844 2843 2841 2839 2837 2835 2833 2831 2829 2827 2824 2822 2820 2818 2816 2814 2811 2809 2807 2804 2803 2801 2799 2797 2795 2793 2791 2788 2785 2782 2779 2776
2929 2928 2927 2926 2925 2924 2922 2921 2920 2919 2918 2917 2916 2915 2914 2912 2911 2909 2908 2906 2905 2903 2902 2900 2899 2898 2896 2895 2893 2892 2891 2890 2888 2887 2884 2881 2878 2876 2873 2871 2870 2869 2866 2863 2861 2858 2856 2853 2850 2848 2847 2845 2843 2841 2840 2839 2838 2836 2834 2833 2831 2829 2827 2825 2822 2819 2817 2815 2813 2811 2808 2806 2804 2802 2800 2798 2796 2794 2792 2790 2788 2785 2782 2779 2777 2774
2926 2925 2924 2923 2922 2921 2919 2918 2917 2916 2915 2914 2913 2912 2911 2909 2908 2907 2905 2904 2902 2901 2899 2898 2897 2896 2894 2893 2892 2890 2888 2887 2886 2884 2882 2879 2877 2874 2872 2869 2868 2867 2864 2862 2859 2856 2853 2850 2848 2845 2843 2842 2841 2839 2838 2836 2834 2833 2831 2830 2828 2827 2825 2822 2820 2817 2815 2812 2810 2808 2806 2804 2802 2799 2797 2795 2793 2791 2788 2786 2784 2781 2778 2776 2773 2772
2923 2922 2921 2920 2919 2918 2916 2915 2914 2913 2913 2911 2910 2909 2908 2907 2905 2904 2903 2901 2900 2898 2897 2896 2894 2893 2893 2891 2890 2888 2887 2885 2884 2882 2880 2877 2875 2872 2870 2868 2866 2864 2863 2860 2857 2854 2852 2848 2846 2843 2841 2839 2838 2837 2836 2834 2832 2830 2828 2826 2826 2825 2823 2820 2818 2815 2813 2810 2808 2806 2803 2802 2799 2797 2795 2793 2791 2788 2785 2783 2780 2778 2775 2772 2769 2768
2921 2920 2918 2918 2916 2915 2914 2913 2912 2911 2910 2908 2908 2906 2905 2904 2902 2901 2900 2898 2897 2896 2895 2893 2892 2891 2890 2889 2888 2887 2885 2883 2882 2880 2878 2875 2873 2870 2868 2866 2864 2862 2860 2858 2856 2853 2850 2848 2845 2842 2840 2837 2835 2834 2833 2832 2830 2827 2825 2823 2822 2821 2820 2818 2816 2813 2811 2808 2806 2803 2801 2799 2797 2795 2793 2791 2788 2785 2782 2779 2777 2774 2771 2768 2765 2762
2918 2917 2916 2915 2914 2913 2912 2910 2909 2908 2907 2906 2905 2904 2903 2901 2900 2898 2897 2896 2895 2893 2892 2891 2890 2889 2888 2887 2886 2884 2883 2881 2879 2878 2875 2873 2871 2869 2867 2865 2863 2860 2858 2856 2854 2852 2849 2847 2844 2841 2838 2836 2834 2832 2831 2830 2828 2826 2823 2821 2819 2818 2818 2816 2814 2811 2808 2806 2804 2801 2799 2797 2795 2793 2791 2788 2786 2783 2780 2777 2774 2771 2768 2765 2762 2758
2915 2914 2913 2912 2911 2910 2909 2908 2907 2906 2904 2903 2902 2901 2900 2898 2897 2895 2894 2893 2893 2892 2890 2889 2888 2887 2886 2885 2884 2883 2881 2879 2877 2875 2873 2871 2869 2867 2865 2863 2861 2859 2857 2854 2853 2850 2848 2846 2843 2840 2837 2835 2833 2831 2829 2828 2827 2824 2822 2819 2817 2816 2815 2814 2812 2809 2807 2804 2802 2799 2797 2794 2793 2791 2788 2786 2784 2781 2778 2775 2772 2769 2766 2762 2759 2756
2912 2911 2910 2909 2908 2907 2906 2905 2904 2903 2902 2901 2900 2898 2897 2896 2894 2893 2892 2891 2890 2889 2888 2887 2886 2885 2884 2883 2882 2881 2879 2877 2875 2873 2871 2869 2868 2866 2864 2862 2860 2858 2855 2853 2851 2849 2847 2844 2842 2839 2836 2834 2832 2830 2828 2826 2825 2823 2821 2819 2816 2814 2812 2811 2809 2807 2805 2802 2799 2797 2794 2792 2790 2788 2786 2784 2781 2779 2776 2773 2770 2767 2763 2760 2757 2754
2909 2908 2908 2907 2905 2905 2904 2903 2902 2900 2899 2898 2897 2896 2894 2893 2892 2890 2889 2889 2888 2887 2886 2885 2884 2883 2882 2881 2879 2878 2877 2875 2873 2871 2870 2868 2866 2864 2863 2860 2858 2856 2854 2852 2849 2847 2845 2843 2841 2838 2836 2833 2831 2829 2827 2825 2823 2822 2820 2818 2815 2813 2810 2808 2806 2804 2802 2800 2798 2795 2793 2790 2788 2786 2784 2782 2779 2777 2774 2771 2768 2765 2762 2758 2755 2752
2907 2906 2905 2904 2903 2902 2901 2900 2899 2898 2897 2896 2894 2893 2892 2891 2889 2888 2888 2887 2886 2885 2884 2883 2882 2881 2880 2879 2878 2876 2875 2873 2872 2870 2868 2867 2865 2863 2861 2859 2857 2855 2853 2851 2848 2846 2844 2842 2839 2837 2835 2833 2831 2828 2826 2824 2822 2820 2819 2817 2814 2812 2809 2807 2804 2802 2799 2798 2795 2793 2791 2788 2786 2783 2781 2779 2777 2774 2772 2769 2765 2762 2759 2756 2753 2750
2904 2903 2902 2901 2900 2899 2898 2898 2896 2895 2894 2893 2892 2891 2890 2888 2888 2887 2886 2885 2884 2883 2882 2881 2880 2879 2878 2877 2876 2874 2873 2872 2870 2869 2867 2865 2863 2862 2859 2858 2856 2853 2852 2849 2848 2845 2843 2841 2838 2836 2833 2832 2830 2828 2826 2823 2821 2819 2817 2815 2813 2811 2808 2806 2803 2800 2798 2795 2793 2791 2789 2786 2783 2781 2779 2777 2775 2772 2770 2767 2763 2760 2757 2754 2751 2748
2901 2900 2899 2898 2898 2897 2896 2895 2894 2893 2892 2891 2890 2888 2888 2886 2885 2885 2884 2883 2882 2881 2880 2879 2878 2877 2876 2875 2874 2873 2871 2870 2869 2868 2866 2864 2862 2860 2858 2856 2854 2852 2850 2848 2847 2845 2843 2840 2838 2835 2832 2830 2828 2827 2825 2823 2820 2818 2815 2813 2811 2809 2807 2804 2802 2799 2797 2794 2792 2789 2786 2784 2781 2779 2776 2774 2773 2770 2768 2765 2762 2758 2755 2752 2749 2747
2899 2898 2897 2896 2895 2894 2894 2893 2892 2890 2889 2888 2888 2886 2885 2884 2883 2883 2882 2881 2880 2879 2878 2877 2876 2875 2874 2873 2872 2871 2870 2868 2867 2866 2864 2863 2861 2859 2857 2855 2853 2851 2849 2848 2846 2844 2842 2840 2838 2834 2831 2828 2827 2825 2823 2822 2819 2817 2814 2812 2809 2807 2805 2803 2800 2798 2795 2793 2790 2787 2784 2782 2779 2776 2774 2772 2770 2768 2766 2763 2760 2757 2754 2751 2748 2745
2897 2896 2895 2894 2893 2892 2891 2890 2889 2888 2887 2886 2885 2884 2883 2883 2882 2881 2880 2879 2878 2878 2877 2876 2875 2874 2873 2872 2871 2869 2868 2867 2866 2864 2863 2861 2859 2857 2855 2854 2852 2850 2848 2847 2845 2843 2841 2839 2837 2834 2831 2828 2825 2823 2822 2820 2818 2816 2813 2810 2808 2805 2803 2801 2799 2796 2794 2791 2788 2786 2783 2780 2777 2774 2772 2769 2767 2765 2763 2761 2758 2756 2753 2749 2747 2744
2894 2893 2893 2892 2891 2890 2889 2888 2887 2886 2885 2884 2883 2883 2882 2881 2880 2879 2878 2878 2877 2876 2875 2874 2873 2873 2872 2871 2869 2868 2867 2866 2864 2863 2861 2859 2858 2856 2854 2852 2851 2849 2847 2846 2844 2842 2840 2838 2837 2834 2830 2827 2823 2821 2819 2818 2816 2814 2812 2809 2807 2804 2802 2799 2797 2795 2792 2789 2787 2784 2782 2779 2776 2773 2770 2768 2765 2763 2761 2759 2757 2754 2751 2748 2746 2743
2892 2891 2890 2889 2888 2888 2887 2886 2885 2884 2883 2882 2881 2881 2880 2879 2878 2878 2877 2876 2875 2874 2873 2873 2872 2871 2870 2869 2868 2867 2866 2864 2863 2861 2860 2858 2856 2854 2853 2851 2849 2848 2846 2844 2843 2841 2839 2838 2836 2834 2831 2827 2823 2820 2818 2816 2814 2812 2811 2808 2806 2803 2800 2798 2795 2793 2791 2788 2785 2783 2780 2777 2774 2772 2769 2766 2763 2761 2758 2757 2755 2753 2750 2747 2744 2742